Location: The Saddle
(36.8333°N, 80.3417°W)
Time: 13:44:19
(UTC-04:00)

SR - Pass Details

Date: 29 May 2024
Orbit: 580 x 858 km, 66.7° (Epoch: 14 June)

Event Time Altitude Azimuth Distance (km) Brightness Sun altitude
Rises 02:34:58 0° 332° (NNW) 2,825 ? -28.8°
Reaches altitude 10° 02:37:13 10° 333° (NNW) 1,907 ? -28.6°
Enters shadow 02:39:27 30° 334° (NNW) 1,042 ? -28.5°
